Flag for Albania Weather past 2 weeks in Tirana, Albania

64 °F

Passing clouds.

Feels Like: 64 °F
Forecast: 60 / 78 °F
Wind: 5 mph from South

Location: Tirana Airport

Current Time: Oct 4, 2015 at 10:35:42 PM

Latest Report: Oct 4, 2015 at 10:20 PM

Visibility: N/A

Pressure: 30.15 "Hg

Humidity: 88%

Dew point: 61 °F

Location of TiranaLocation

Historic Weather in Tirana — Graph


Tirana temperature yesterday

Maximum temperature yesterday: 81 °F (at 11:50 AM)
Minimum temperature yesterday: 55 °F (at 2:20 AM)
Average temperature yesterday: 68 °F

Past Weeks' High & Low Weather Summary

High88 °F (Sep 20, 11:50 AM)94% (Sep 20, 11:50 PM)30.27 "Hg (Sep 20, 11:50 PM)
Low54 °F (Sep 26, 5:50 AM)26% (Oct 2, 3:20 PM)29.62 "Hg (Sep 21, 4:20 AM)
Average69 °F64%29.98 "Hg
* Reported Sep 19 9:20 PM — Oct 4 9:20 PM, Tirana, Weather by CustomWeather, © 2015

Note: Actual official high and low records may vary slightly from our data, if they occured in-between our weather recording intervals... More about our weather records


Tirana weather history for previous 24 hours

Time TempWeatherWind HumidityBarometerVisibility
9:20 PM
Sun, Oct 4
66 °FClear.5 mph88%30.15 "Hg10 mi
8:50 PM66 °FClear.2 mph88%30.15 "Hg10 mi
8:20 PM66 °FClear.2 mph94%30.15 "Hg10 mi
7:50 PM70 °FClear.2 mph83%30.15 "Hg10 mi
7:20 PM70 °FPassing clouds.2 mph83%30.15 "HgN/A
6:50 PM72 °FPassing clouds.2 mph73%30.15 "HgN/A
6:20 PM72 °FPassing clouds.3 mph69%30.15 "HgN/A
5:50 PM73 °FScattered clouds.5 mph65%30.12 "HgN/A
5:20 PM75 °FScattered clouds.No wind61%30.15 "HgN/A
4:50 PM79 °FScattered clouds.No wind54%30.15 "HgN/A
4:20 PM77 °FScattered clouds.2 mph57%30.15 "HgN/A
3:50 PM77 °FScattered clouds.3 mph57%30.15 "HgN/A
3:20 PM77 °FScattered clouds.No wind54%30.18 "HgN/A
2:50 PM77 °FScattered clouds.No wind54%30.18 "HgN/A
2:20 PM75 °FScattered clouds.2 mph57%30.18 "HgN/A
1:50 PM72 °FBroken clouds.5 mph73%30.21 "HgN/A
1:20 PM72 °FPartly sunny.2 mph83%30.21 "HgN/A
12:50 PM68 °FLight rain. Partly sunny.5 mph88%30.21 "Hg5 mi
12:20 PM68 °FRain. Broken clouds.6 mph88%30.24 "Hg4 mi
11:50 AM68 °FLight rain. Broken clouds.2 mph88%30.21 "HgN/A
11:20 AM68 °FHeavy rain. Mostly cloudy.12 mph78%30.21 "Hg4 mi
10:50 AM75 °FPartly sunny.6 mph54%30.21 "HgN/A
10:20 AM75 °FPartly sunny.2 mph47%30.21 "HgN/A
9:50 AM73 °FPartly sunny.2 mph53%30.21 "HgN/A
9:20 AM72 °FPartly sunny.2 mph61%30.21 "HgN/A
8:50 AM68 °FPartly sunny.2 mph69%30.21 "HgN/A
8:20 AM66 °FPartly sunny.2 mph78%30.21 "HgN/A
7:50 AM64 °FBroken clouds.3 mph78%30.21 "HgN/A
7:20 AM63 °FPassing clouds.2 mph83%30.21 "HgN/A
6:20 AM64 °FPassing clouds.3 mph78%30.21 "HgN/A
5:50 AM64 °FPassing clouds.2 mph78%30.21 "HgN/A
5:20 AM66 °FPassing clouds.3 mph73%30.21 "HgN/A
4:50 AM66 °FPassing clouds.2 mph73%30.21 "HgN/A
4:20 AM66 °FPassing clouds.3 mph73%30.21 "HgN/A
3:50 AM66 °FPassing clouds.2 mph73%30.21 "HgN/A
3:20 AM66 °FPassing clouds.3 mph73%30.21 "HgN/A
2:50 AM66 °FPartly cloudy.2 mph78%30.21 "HgN/A
2:20 AM66 °FPassing clouds.3 mph73%30.21 "HgN/A
1:50 AM66 °FPassing clouds.5 mph73%30.24 "HgN/A
1:20 AM66 °FPassing clouds.3 mph73%30.24 "HgN/A
12:50 AM66 °FPassing clouds.3 mph73%30.24 "HgN/A
11:20 PM
Sat, Oct 3
66 °FPassing clouds.No wind73%30.24 "HgN/A
10:50 PM64 °FPassing clouds.5 mph78%30.24 "HgN/A
10:20 PM66 °FPassing clouds.3 mph73%30.24 "HgN/A
Weather by CustomWeather, © 2015

See weather overviewHow to use our weather pages